Flag for U.S.A. Weather past 2 weeks in Charlotte, North Carolina, U.S.A.

Now
69 °F

Passing clouds.


Feels Like: 69 °F
Forecast: 63 / 83 °F
Wind: 5 mph from North

Location: Charlotte / Douglas International Airport

Current Time: Jul 30, 2014 at 12:09:12 AM

Latest Report: Jul 29, 2014 at 10:52 PM


Visibility: 10 mi

Pressure: 29.98 "Hg

Humidity: 73%

Dew point: 60 °F

Location of CharlotteLocation

Historic Weather in Charlotte — Graph

°F

Charlotte temperature yesterday

Maximum temperature yesterday: 82 °F (at 3:52 PM)
Minimum temperature yesterday: 62 °F (at 5:52 AM)
Average temperature yesterday: 74 °F

Past Weeks' High & Low Weather Summary

 TemperatureHumidityPressure
High93 °F (Jul 15, 2:52 PM)100% (Jul 26, 7:52 AM)30.16 "Hg (Jul 26, 7:52 AM)
Low62 °F (Jul 29, 5:52 AM)35% (Jul 17, 12:52 PM)29.73 "Hg (Jul 15, 3:52 PM)
Average76 °F70%29.99 "Hg
* Reported Jul 14 10:52 PM — Jul 29 10:52 PM, Charlotte, Weather by CustomWeather, © 2014

Note: Actual official high and low records may vary slightly from our data, if they occured in-between our weather recording intervals... More about our weather records

Advertising

Charlotte weather history for previous 24 hours

 ConditionsComfort  
Time TempWeatherWind HumidityBarometerVisibility
10:52 PM
Jul 29
69 °FPassing clouds.5 mph73%29.98 "Hg10 mi
9:52 PM72 °FPassing clouds.No wind57%29.97 "Hg10 mi
8:52 PM75 °FPassing clouds.No wind47%29.95 "Hg10 mi
7:52 PM77 °FPassing clouds.No wind47%29.94 "Hg10 mi
6:52 PM81 °FPassing clouds.5 mph39%29.93 "Hg10 mi
5:52 PM81 °FPassing clouds.No wind39%29.94 "Hg10 mi
4:52 PM82 °FScattered clouds.3 mph38%29.93 "Hg10 mi
3:52 PM82 °FScattered clouds.6 mph38%29.93 "Hg10 mi
2:52 PM80 °FScattered clouds.3 mph39%29.94 "Hg10 mi
1:52 PM78 °FScattered clouds.No wind43%29.95 "Hg10 mi
12:52 PM78 °FScattered clouds.No wind46%29.96 "Hg10 mi
11:52 AM78 °FScattered clouds.3 mph45%29.97 "Hg10 mi
10:52 AM77 °FSunny.5 mph47%29.97 "Hg10 mi
9:52 AM75 °FSunny.8 mph50%29.96 "Hg10 mi
8:52 AM72 °FScattered clouds.7 mph59%29.96 "Hg10 mi
7:52 AM69 °FPartly sunny.5 mph68%29.96 "Hg10 mi
6:52 AM63 °FPassing clouds.3 mph81%29.94 "Hg10 mi
5:52 AM62 °FPassing clouds.No wind80%29.92 "Hg10 mi
4:52 AM67 °FPassing clouds.5 mph66%29.89 "Hg10 mi
3:52 AM66 °FPassing clouds.6 mph68%29.88 "Hg10 mi
2:52 AM68 °FPassing clouds.7 mph63%29.88 "Hg10 mi
1:52 AM71 °FPassing clouds.9 mph55%29.88 "Hg10 mi
12:52 AM71 °FOvercast.6 mph59%29.89 "Hg10 mi
Weather by CustomWeather, © 2014

See weather overviewHow to use our weather pages